Station Historical Data
Daily Summary for February 1, 2012 Units:  Metric    English   Both
« Previous Day
Next Day »
Daily Weekly Monthly Yearly Custom
  High: Low: Average:
Temperature: 17.6 °C 11.4 °C 14.3 °C
Dew Point: 16.1 °C 8.6 °C 13.2 °C
Humidity: 95% 77% 93%
Wind Speed: 17.7km/h 1.6km/h 7.1km/h
Wind Gust: 24.1km/h - -
Wind- - SSE
Pressure: 1021.2 hPa 1015.8 hPa -
Precipitation: 38.61 mm    
Historical Graphs
 
 
Tabular Data for February 1, 2012
Time Temperature Dew Point Pressure Wind Wind Speed Wind Gust Humidity Rainfall Rate (Hourly) Conditions
00:00 12.6 °C 8.7 °C 1021.2 hPa SE 8 km/h 12.9 km/h 77% 0 mm
00:01 12.6 °C 8.6 °C 1021.2 hPa SE 11.3 km/h 12.9 km/h 77% 0 mm
00:02 12.6 °C 8.6 °C 1021.2 hPa SSE 11.3 km/h 12.9 km/h 77% 0 mm
00:07 12.6 °C 8.8 °C 1021.2 hPa SSE 11.3 km/h 12.9 km/h 78% 0 mm
00:12 12.5 °C 8.8 °C 1021.2 hPa SE 6.4 km/h 14.5 km/h 78% 0 mm
00:17 12.4 °C 8.8 °C 1021.2 hPa SE 11.3 km/h 12.9 km/h 79% 0 mm
00:22 12.3 °C 9 °C 1021.2 hPa SE 8 km/h 16.1 km/h 80% 0 mm
00:27 12.2 °C 9.1 °C 1021.2 hPa SE 8 km/h 16.1 km/h 81% 0 mm
00:32 12.1 °C 9.3 °C 1021.2 hPa SE 12.9 km/h 14.5 km/h 83% 0 mm
00:37 11.8 °C 9.2 °C 1021.2 hPa SSE 4.8 km/h 9.7 km/h 84% 1.52 mm
00:42 11.7 °C 9.2 °C 1021.2 hPa SSE 4.8 km/h 14.5 km/h 85% 1.52 mm
00:47 11.6 °C 9.2 °C 1020.9 hPa ESE 9.7 km/h 14.5 km/h 85% 1.27 mm
00:52 11.6 °C 9.3 °C 1020.9 hPa SSE 4.8 km/h 8 km/h 86% 0 mm
00:57 11.4 °C 9.3 °C 1020.9 hPa SSE 3.2 km/h 4.8 km/h 87% 0 mm
01:03 11.4 °C 9.3 °C 1020.9 hPa SE 6.4 km/h 6.4 km/h 87% 0 mm
01:08 11.4 °C 9.3 °C 1020.9 hPa SE 6.4 km/h 9.7 km/h 87% 0 mm
01:13 11.5 °C 9.4 °C 1020.9 hPa SE 11.3 km/h 11.3 km/h 87% 0 mm
01:18 11.6 °C 9.3 °C 1020.9 hPa SE 6.4 km/h 8 km/h 86% 0 mm
01:23 11.7 °C 9.4 °C 1020.9 hPa SSE 4.8 km/h 8 km/h 86% 0 mm
01:28 11.7 °C 9.6 °C 1020.9 hPa SE 9.7 km/h 11.3 km/h 87% 0 mm
01:33 11.7 °C 9.6 °C 1020.9 hPa SE 8 km/h 11.3 km/h 87% 0 mm
01:38 11.6 °C 9.4 °C 1020.9 hPa SSE 6.4 km/h 8 km/h 87% 0 mm
01:43 11.6 °C 9.6 °C 1020.9 hPa SSE 6.4 km/h 8 km/h 88% 0 mm
01:48 11.5 °C 9.6 °C 1020.9 hPa South 6.4 km/h 6.4 km/h 88% 0 mm
01:53 11.6 °C 9.6 °C 1020.9 hPa South 4.8 km/h 8 km/h 88% 0 mm
01:58 11.7 °C 9.7 °C 1020.9 hPa South 3.2 km/h 9.7 km/h 88% 0 mm
02:03 11.8 °C 9.8 °C 1020.9 hPa South 6.4 km/h 8 km/h 88% 0 mm
02:08 11.8 °C 10 °C 1020.9 hPa SSE 8 km/h 9.7 km/h 89% 0 mm
02:13 11.9 °C 10 °C 1020.9 hPa SSE 6.4 km/h 12.9 km/h 88% 0 mm
02:18 12 °C 10.1 °C 1020.9 hPa SE 8 km/h 11.3 km/h 88% 0 mm
02:23 12.2 °C 10.2 °C 1020.5 hPa SE 6.4 km/h 12.9 km/h 88% 0 mm
02:28 12.3 °C 10.3 °C 1020.9 hPa SE 11.3 km/h 11.3 km/h 88% 0 mm
02:33 12.4 °C 10.4 °C 1020.9 hPa SE 8 km/h 11.3 km/h 88% 0 mm
02:38 12.4 °C 10.4 °C 1020.5 hPa SSE 8 km/h 9.7 km/h 88% 0 mm
02:43 12.4 °C 10.4 °C 1020.5 hPa SSE 6.4 km/h 8 km/h 88% 0 mm
02:48 12.4 °C 10.6 °C 1020.5 hPa SE 8 km/h 11.3 km/h 89% 0 mm
02:53 12.4 °C 10.6 °C 1020.5 hPa SSE 6.4 km/h 9.7 km/h 89% 0 mm
02:58 12.4 °C 10.7 °C 1020.5 hPa SE 4.8 km/h 8 km/h 89% 0 mm
03:03 12.5 °C 10.9 °C 1020.5 hPa SSE 4.8 km/h 11.3 km/h 90% 0 mm
03:08 12.6 °C 10.9 °C 1020.5 hPa SSE 8 km/h 11.3 km/h 90% 0 mm
03:13 12.6 °C 11 °C 1020.5 hPa South 6.4 km/h 11.3 km/h 90% 0 mm
03:18 12.6 °C 11.2 °C 1020.2 hPa South 9.7 km/h 11.3 km/h 91% 0 mm
03:23 12.7 °C 11.2 °C 1020.2 hPa SE 8 km/h 11.3 km/h 91% 0 mm
03:28 12.7 °C 11.3 °C 1020.2 hPa SSE 4.8 km/h 11.3 km/h 91% 0 mm
03:33 12.7 °C 11.3 °C 1020.2 hPa SSE 6.4 km/h 9.7 km/h 91% 0 mm
03:38 12.8 °C 11.3 °C 1020.2 hPa SE 9.7 km/h 9.7 km/h 91% 0 mm
03:43 12.8 °C 11.6 °C 1020.2 hPa SSE 6.4 km/h 11.3 km/h 92% 0 mm
03:48 12.9 °C 11.6 °C 1020.2 hPa SE 9.7 km/h 9.7 km/h 92% 0 mm
03:53 12.9 °C 11.7 °C 1020.2 hPa SSE 3.2 km/h 9.7 km/h 92% 0 mm
03:58 13 °C 11.7 °C 1020.2 hPa SE 9.7 km/h 11.3 km/h 92% 0 mm
04:03 13.1 °C 11.8 °C 1019.9 hPa SSE 9.7 km/h 14.5 km/h 92% 0 mm
04:08 13.2 °C 11.9 °C 1020.2 hPa SE 6.4 km/h 9.7 km/h 92% 0 mm
04:13 13.2 °C 11.9 °C 1019.9 hPa SE 6.4 km/h 9.7 km/h 92% 0 mm
04:18 13.2 °C 11.9 °C 1020.2 hPa SSE 4.8 km/h 8 km/h 92% 0 mm
04:23 13.3 °C 12 °C 1020.2 hPa South 4.8 km/h 8 km/h 92% 0 mm
04:28 13.3 °C 12 °C 1019.9 hPa SSE 9.7 km/h 9.7 km/h 92% 0 mm
04:34 13.3 °C 12.2 °C 1019.9 hPa SE 8 km/h 8 km/h 93% 0 mm
04:39 13.3 °C 12.2 °C 1019.9 hPa SE 8 km/h 9.7 km/h 93% 0 mm
04:44 13.3 °C 12.2 °C 1019.9 hPa SSE 4.8 km/h 8 km/h 93% 0 mm
04:49 13.3 °C 12.2 °C 1019.9 hPa SSE 4.8 km/h 6.4 km/h 93% 0 mm
04:54 13.4 °C 12.3 °C 1019.9 hPa SSE 9.7 km/h 9.7 km/h 93% 0 mm
04:59 13.4 °C 12.3 °C 1019.9 hPa SE 12.9 km/h 12.9 km/h 93% 0 mm
05:04 13.5 °C 12.4 °C 1019.5 hPa SSE 8 km/h 12.9 km/h 93% 0 mm
05:09 13.6 °C 12.4 °C 1019.5 hPa SSE 6.4 km/h 11.3 km/h 93% 0 mm
05:14 13.6 °C 12.7 °C 1019.5 hPa SSE 8 km/h 12.9 km/h 94% 0 mm
05:19 13.7 °C 12.7 °C 1019.5 hPa South 8 km/h 11.3 km/h 94% 0 mm
05:24 13.7 °C 12.8 °C 1019.9 hPa SSE 6.4 km/h 11.3 km/h 94% 0 mm
05:29 13.8 °C 12.8 °C 1019.5 hPa South 4.8 km/h 9.7 km/h 94% 0 mm
05:34 13.8 °C 12.8 °C 1019.5 hPa SSE 3.2 km/h 11.3 km/h 94% 0 mm
05:39 13.8 °C 12.9 °C 1019.5 hPa SE 6.4 km/h 9.7 km/h 94% 0 mm
05:44 13.9 °C 12.9 °C 1019.5 hPa SSE 4.8 km/h 12.9 km/h 94% 0 mm
05:49 13.9 °C 13 °C 1019.5 hPa SSE 6.4 km/h 9.7 km/h 94% 0 mm
05:54 14 °C 13.1 °C 1019.5 hPa SSE 11.3 km/h 11.3 km/h 94% 0 mm
05:59 14.1 °C 13.1 °C 1019.5 hPa SSE 11.3 km/h 11.3 km/h 94% 0 mm
06:04 14.1 °C 13.2 °C 1019.5 hPa SSE 8 km/h 11.3 km/h 94% 0 mm
06:09 14.1 °C 13.1 °C 1019.5 hPa South 8 km/h 12.9 km/h 94% 0 mm
06:14 14.1 °C 13.1 °C 1019.5 hPa SE 8 km/h 12.9 km/h 94% 0 mm
06:19 14.1 °C 13.2 °C 1019.5 hPa SSE 12.9 km/h 14.5 km/h 94% 0 mm
06:24 14.2 °C 13.2 °C 1019.9 hPa SSE 6.4 km/h 11.3 km/h 94% 0 mm
06:29 14.2 °C 13.2 °C 1019.5 hPa SSE 6.4 km/h 12.9 km/h 94% 0 mm
06:34 14.2 °C 13.2 °C 1019.5 hPa South 8 km/h 12.9 km/h 94% 0 mm
06:39 14.2 °C 13.2 °C 1019.5 hPa SSE 9.7 km/h 11.3 km/h 94% 0 mm
06:44 14.2 °C 13.2 °C 1019.5 hPa SE 8 km/h 14.5 km/h 94% 0 mm
06:49 14.2 °C 13.2 °C 1019.5 hPa SSW 11.3 km/h 17.7 km/h 94% 0 mm
06:54 14.2 °C 13.3 °C 1019.5 hPa SE 6.4 km/h 12.9 km/h 94% 7.62 mm
06:59 14.2 °C 13.3 °C 1019.5 hPa SSE 11.3 km/h 12.9 km/h 94% 4.06 mm
07:04 14.2 °C 13.4 °C 1019.5 hPa SE 6.4 km/h 11.3 km/h 95% 1.78 mm
07:09 14.2 °C 13.4 °C 1019.5 hPa SE 11.3 km/h 14.5 km/h 95% 1.52 mm
07:14 14.2 °C 13.4 °C 1019.5 hPa SSE 9.7 km/h 14.5 km/h 95% 2.03 mm
07:19 14.2 °C 13.4 °C 1019.5 hPa SSE 11.3 km/h 14.5 km/h 95% 16 mm
07:24 14.2 °C 13.4 °C 1019.5 hPa SSE 9.7 km/h 14.5 km/h 95% 5.08 mm
07:29 14.2 °C 13.4 °C 1019.5 hPa SSW 6.4 km/h 14.5 km/h 95% 2.29 mm
07:34 14.3 °C 13.5 °C 1019.5 hPa SSE 4.8 km/h 9.7 km/h 95% 2.29 mm
07:40 14.2 °C 13.4 °C 1019.9 hPa SSW 4.8 km/h 11.3 km/h 95% 18.8 mm
07:45 14.2 °C 13.4 °C 1019.9 hPa SSE 4.8 km/h 6.4 km/h 95% 6.6 mm
07:50 14.2 °C 13.4 °C 1019.9 hPa West 1.6 km/h 4.8 km/h 95% 3.56 mm
07:55 14.3 °C 13.5 °C 1020.2 hPa WSW 6.4 km/h 6.4 km/h 95% 19.56 mm
08:00 14.3 °C 13.6 °C 1020.2 hPa SE 3.2 km/h 9.7 km/h 95% 7.87 mm
08:05 14.3 °C 13.6 °C 1020.2 hPa SSE 6.4 km/h 9.7 km/h 95% 19.3 mm
08:11 14.3 °C 13.5 °C 1019.9 hPa SSW 9.7 km/h 9.7 km/h 95% 11.43 mm
08:16 14.3 °C 13.5 °C 1019.9 hPa SE 8 km/h 11.3 km/h 95% 3.56 mm
08:21 14.3 °C 13.6 °C 1019.9 hPa SSE 6.4 km/h 12.9 km/h 95% 4.32 mm
08:26 14.3 °C 13.6 °C 1019.9 hPa SSE 6.4 km/h 8 km/h 95% 2.03 mm
08:31 14.3 °C 13.6 °C 1019.9 hPa South 8 km/h 9.7 km/h 95% 1.27 mm
08:36 14.3 °C 13.5 °C 1019.9 hPa SE 3.2 km/h 6.4 km/h 95% 0 mm
08:41 14.2 °C 13.4 °C 1019.9 hPa SE 4.8 km/h 8 km/h 95% 0 mm
08:46 14.3 °C 13.5 °C 1019.9 hPa SE 8 km/h 11.3 km/h 95% 0 mm
08:51 14.4 °C 13.6 °C 1019.9 hPa SE 6.4 km/h 12.9 km/h 95% 0 mm
08:56 14.4 °C 13.7 °C 1019.9 hPa SSE 11.3 km/h 17.7 km/h 95% 0 mm
09:01 14.4 °C 13.7 °C 1019.9 hPa SSE 14.5 km/h 14.5 km/h 95% 0 mm
09:06 14.6 °C 13.8 °C 1019.9 hPa South 12.9 km/h 12.9 km/h 95% 0 mm
09:11 14.6 °C 13.8 °C 1019.9 hPa SSE 6.4 km/h 12.9 km/h 95% 0 mm
09:16 14.6 °C 13.8 °C 1019.9 hPa SSE 4.8 km/h 11.3 km/h 95% 0 mm
09:21 14.6 °C 13.8 °C 1019.9 hPa SSE 4.8 km/h 14.5 km/h 95% 0 mm
09:26 14.5 °C 13.7 °C 1019.9 hPa SE 8 km/h 11.3 km/h 95% 8.89 mm
09:31 14.5 °C 13.7 °C 1019.9 hPa SSW 8 km/h 9.7 km/h 95% 3.81 mm
09:36 14.4 °C 13.7 °C 1019.9 hPa SSE 4.8 km/h 6.4 km/h 95% 2.29 mm
09:41 14.4 °C 13.7 °C 1019.9 hPa SSE 6.4 km/h 9.7 km/h 95% 2.03 mm
09:46 14.4 °C 13.6 °C 1019.5 hPa SSE 9.7 km/h 11.3 km/h 95% 1.52 mm
09:51 14.4 °C 13.6 °C 1019.5 hPa SSE 6.4 km/h 9.7 km/h 95% 4.32 mm
09:56 14.4 °C 13.6 °C 1019.5 hPa SSE 11.3 km/h 14.5 km/h 95% 1.78 mm
10:01 14.4 °C 13.6 °C 1019.5 hPa SE 8 km/h 11.3 km/h 95% 1.02 mm
10:06 14.4 °C 13.6 °C 1019.5 hPa SE 12.9 km/h 12.9 km/h 95% 0 mm
10:12 14.3 °C 13.6 °C 1019.5 hPa SSE 11.3 km/h 12.9 km/h 95% 0 mm
10:17 14.3 °C 13.6 °C 1019.5 hPa SSE 9.7 km/h 11.3 km/h 95% 0 mm
10:22 14.3 °C 13.6 °C 1019.5 hPa South 3.2 km/h 9.7 km/h 95% 0 mm
10:27 14.3 °C 13.5 °C 1019.5 hPa SE 11.3 km/h 12.9 km/h 95% 0 mm
10:32 14.3 °C 13.6 °C 1019.5 hPa SSE 9.7 km/h 11.3 km/h 95% 0 mm
10:37 14.3 °C 13.5 °C 1019.5 hPa South 9.7 km/h 12.9 km/h 95% 0 mm
10:42 14.3 °C 13.5 °C 1019.5 hPa South 3.2 km/h 8 km/h 95% 0 mm
10:47 14.3 °C 13.5 °C 1019.5 hPa SSW 3.2 km/h 8 km/h 95% 0 mm
10:52 14.3 °C 13.5 °C 1019.5 hPa SSE 9.7 km/h 9.7 km/h 95% 0 mm
10:57 14.3 °C 13.5 °C 1019.5 hPa SSE 6.4 km/h 14.5 km/h 95% 3.56 mm
11:02 14.3 °C 13.5 °C 1019.5 hPa SSE 4.8 km/h 11.3 km/h 95% 2.54 mm
11:07 14.3 °C 13.5 °C 1019.5 hPa South 6.4 km/h 9.7 km/h 95% 1.27 mm
11:12 14.3 °C 13.6 °C 1019.5 hPa SSW 6.4 km/h 6.4 km/h 95% 1.02 mm
11:17 14.3 °C 13.6 °C 1019.5 hPa SSE 6.4 km/h 9.7 km/h 95% 0 mm
11:22 14.4 °C 13.6 °C 1019.2 hPa South 4.8 km/h 11.3 km/h 95% 0 mm
11:27 14.3 °C 13.6 °C 1019.2 hPa SSW 6.4 km/h 9.7 km/h 95% 0 mm
11:32 14.4 °C 13.6 °C 1019.2 hPa South 4.8 km/h 6.4 km/h 95% 0 mm
11:37 14.4 °C 13.6 °C 1019.2 hPa South 3.2 km/h 8 km/h 95% 0 mm
11:42 14.4 °C 13.6 °C 1019.2 hPa SSE 6.4 km/h 8 km/h 95% 1.27 mm
11:47 14.3 °C 13.6 °C 1019.2 hPa SSE 1.6 km/h 8 km/h 95% 1.27 mm
11:52 14.4 °C 13.6 °C 1019.2 hPa SSE 4.8 km/h 4.8 km/h 95% 1.27 mm
11:58 14.4 °C 13.6 °C 1019.2 hPa SSE 4.8 km/h 6.4 km/h 95% 1.02 mm
12:03 14.4 °C 13.7 °C 1019.2 hPa South 6.4 km/h 6.4 km/h 95% 0 mm
12:08 14.6 °C 13.8 °C 1019.2 hPa South 4.8 km/h 8 km/h 95% 0 mm
12:13 14.7 °C 13.9 °C 1018.8 hPa SSE 6.4 km/h 6.4 km/h 95% 0 mm
12:18 14.6 °C 13.8 °C 1019.2 hPa SSW 6.4 km/h 11.3 km/h 95% 0 mm
12:23 14.6 °C 13.8 °C 1018.8 hPa SSE 3.2 km/h 8 km/h 95% 0 mm
12:28 14.6 °C 13.8 °C 1018.8 hPa SSE 4.8 km/h 9.7 km/h 95% 0 mm
12:33 14.6 °C 13.8 °C 1018.8 hPa SSE 8 km/h 8 km/h 95% 0 mm
12:38 14.6 °C 13.8 °C 1018.8 hPa SSE 4.8 km/h 8 km/h 95% 0 mm
12:43 14.5 °C 13.7 °C 1018.8 hPa SSE 4.8 km/h 9.7 km/h 95% 0 mm
12:48 14.6 °C 13.8 °C 1018.5 hPa South 4.8 km/h 8 km/h 95% 0 mm
12:53 14.7 °C 13.9 °C 1018.5 hPa South 3.2 km/h 9.7 km/h 95% 0 mm
12:58 14.7 °C 13.9 °C 1018.5 hPa SSW 8 km/h 8 km/h 95% 0 mm
13:03 14.7 °C 13.9 °C 1018.5 hPa South 8 km/h 11.3 km/h 95% 0 mm
13:08 14.7 °C 13.9 °C 1018.2 hPa SSE 4.8 km/h 9.7 km/h 95% 0 mm
13:13 14.7 °C 13.9 °C 1018.2 hPa SW 6.4 km/h 9.7 km/h 95% 0 mm
13:18 14.8 °C 14 °C 1018.2 hPa South 4.8 km/h 8 km/h 95% 0 mm
13:23 14.8 °C 14.1 °C 1018.2 hPa SSW 6.4 km/h 9.7 km/h 95% 0 mm
13:28 14.9 °C 14.1 °C 1018.2 hPa SSW 6.4 km/h 8 km/h 95% 0 mm
13:33 15 °C 14.2 °C 1017.8 hPa SSE 4.8 km/h 9.7 km/h 95% 0 mm
13:38 15.1 °C 14.3 °C 1017.8 hPa SW 3.2 km/h 8 km/h 95% 0 mm
13:43 15.2 °C 14.4 °C 1017.8 hPa South 6.4 km/h 6.4 km/h 95% 0 mm
13:48 15.4 °C 14.6 °C 1017.8 hPa SSW 1.6 km/h 8 km/h 95% 0 mm
13:53 15.6 °C 14.8 °C 1017.8 hPa South 3.2 km/h 6.4 km/h 95% 0 mm
13:58 15.8 °C 15 °C 1017.5 hPa SSW 4.8 km/h 8 km/h 95% 0 mm
14:03 15.8 °C 15.1 °C 1017.5 hPa SW 6.4 km/h 9.7 km/h 95% 0 mm
14:08 15.9 °C 15.1 °C 1017.5 hPa SSW 3.2 km/h 9.7 km/h 95% 0 mm
14:13 16 °C 15.2 °C 1017.5 hPa WSW 3.2 km/h 6.4 km/h 95% 0 mm
14:18 16.1 °C 15.3 °C 1017.5 hPa South 4.8 km/h 9.7 km/h 95% 0 mm
14:23 16.1 °C 15.3 °C 1017.5 hPa SSW 3.2 km/h 9.7 km/h 95% 0 mm
14:28 16.2 °C 15.4 °C 1017.5 hPa SW 3.2 km/h 8 km/h 95% 0 mm
14:33 16.4 °C 15.7 °C 1017.2 hPa SE 6.4 km/h 9.7 km/h 95% 0 mm
14:38 16.6 °C 15.6 °C 1017.5 hPa SSW 6.4 km/h 9.7 km/h 94% 0 mm
14:43 16.7 °C 15.8 °C 1017.2 hPa South 8 km/h 9.7 km/h 94% 0 mm
14:48 16.8 °C 15.9 °C 1017.2 hPa WSW 1.6 km/h 8 km/h 94% 0 mm
14:53 16.9 °C 15.7 °C 1017.2 hPa SE 9.7 km/h 9.7 km/h 93% 0 mm
14:58 16.8 °C 15.7 °C 1016.8 hPa SSE 9.7 km/h 9.7 km/h 93% 0 mm
15:03 16.7 °C 15.6 °C 1016.8 hPa SSE 11.3 km/h 12.9 km/h 93% 0 mm
15:09 16.6 °C 15.6 °C 1016.8 hPa SSE 12.9 km/h 16.1 km/h 94% 0 mm
15:14 16.6 °C 15.6 °C 1016.8 hPa ESE 8 km/h 11.3 km/h 94% 0 mm
15:19 16.8 °C 15.8 °C 1016.8 hPa SE 8 km/h 12.9 km/h 94% 0 mm
15:24 16.8 °C 15.7 °C 1016.8 hPa SE 11.3 km/h 12.9 km/h 93% 0 mm
15:29 16.9 °C 15.7 °C 1016.8 hPa SSE 8 km/h 9.7 km/h 93% 0 mm
15:34 16.9 °C 15.7 °C 1016.8 hPa ESE 8 km/h 9.7 km/h 93% 0 mm
15:39 17.1 °C 16 °C 1016.8 hPa SSE 4.8 km/h 11.3 km/h 93% 0 mm
15:44 17.2 °C 15.9 °C 1016.8 hPa SW 3.2 km/h 9.7 km/h 92% 0 mm
15:49 17.3 °C 16 °C 1016.8 hPa SSE 9.7 km/h 9.7 km/h 92% 0 mm
15:54 17.3 °C 16 °C 1016.8 hPa South 6.4 km/h 9.7 km/h 92% 0 mm
15:59 17.3 °C 16 °C 1016.8 hPa South 4.8 km/h 8 km/h 92% 0 mm
16:04 17.3 °C 15.8 °C 1016.8 hPa South 8 km/h 8 km/h 91% 0 mm
16:09 17.4 °C 15.9 °C 1016.8 hPa SSE 4.8 km/h 6.4 km/h 91% 0 mm
16:14 17.6 °C 16.1 °C 1016.5 hPa SSE 9.7 km/h 9.7 km/h 91% 0 mm
16:19 17.5 °C 16 °C 1016.5 hPa SSE 8 km/h 11.3 km/h 91% 0 mm
16:24 17.3 °C 15.8 °C 1016.5 hPa ESE 9.7 km/h 11.3 km/h 91% 0 mm
16:29 17.1 °C 15.7 °C 1016.5 hPa SE 4.8 km/h 8 km/h 92% 0 mm
16:34 17.1 °C 15.7 °C 1016.5 hPa SE 4.8 km/h 8 km/h 92% 0 mm
16:39 17.1 °C 15.8 °C 1016.1 hPa SSE 6.4 km/h 11.3 km/h 92% 0 mm
16:44 17.1 °C 15.7 °C 1016.1 hPa SSE 12.9 km/h 12.9 km/h 92% 0 mm
16:49 16.9 °C 15.6 °C 1016.1 hPa ESE 9.7 km/h 14.5 km/h 92% 0 mm
16:54 16.8 °C 15.6 °C 1016.1 hPa SE 6.4 km/h 12.9 km/h 92% 0 mm
16:59 16.7 °C 15.4 °C 1015.8 hPa SSE 11.3 km/h 11.3 km/h 92% 0 mm
17:04 16.6 °C 15.3 °C 1015.8 hPa ESE 6.4 km/h 9.7 km/h 92% 0 mm
17:09 16.4 °C 15.3 °C 1015.8 hPa SE 4.8 km/h 11.3 km/h 93% 0 mm
17:14 16.3 °C 15.2 °C 1015.8 hPa ESE 6.4 km/h 8 km/h 93% 0 mm
17:19 16.2 °C 15.1 °C 1015.8 hPa SE 4.8 km/h 6.4 km/h 93% 0 mm
17:24 16.2 °C 15.1 °C 1015.8 hPa SE 4.8 km/h 8 km/h 93% 0 mm
17:30 16.2 °C 15.1 °C 1015.8 hPa SE 6.4 km/h 11.3 km/h 93% 0 mm
17:35 16.2 °C 15.1 °C 1015.8 hPa SE 8 km/h 11.3 km/h 93% 0 mm
17:40 16.1 °C 15.1 °C 1015.8 hPa SE 11.3 km/h 14.5 km/h 94% 0 mm
17:45 15.8 °C 14.8 °C 1015.8 hPa ESE 12.9 km/h 14.5 km/h 94% 0 mm
17:50 15.6 °C 14.7 °C 1015.8 hPa SE 8 km/h 11.3 km/h 94% 0 mm
17:55 15.4 °C 14.5 °C 1015.8 hPa SE 6.4 km/h 12.9 km/h 94% 0 mm
18:00 15.3 °C 14.6 °C 1015.8 hPa SE 8 km/h 11.3 km/h 95% 0 mm
18:05 15.2 °C 14.4 °C 1015.8 hPa ESE 8 km/h 12.9 km/h 95% 0 mm
18:10 15.1 °C 14.3 °C 1016.1 hPa SE 6.4 km/h 11.3 km/h 95% 0 mm
18:15 15.1 °C 14.3 °C 1016.1 hPa SSE 6.4 km/h 11.3 km/h 95% 0 mm
18:20 15.1 °C 14.3 °C 1016.5 hPa SSE 4.8 km/h 9.7 km/h 95% 0 mm
18:25 15.1 °C 14.3 °C 1016.5 hPa SSE 6.4 km/h 6.4 km/h 95% 0 mm
18:30 15.1 °C 14.3 °C 1016.8 hPa South 3.2 km/h 6.4 km/h 95% 0 mm
18:35 15.1 °C 14.3 °C 1016.8 hPa SSE 6.4 km/h 6.4 km/h 95% 0 mm
18:40 15.1 °C 14.3 °C 1016.5 hPa SE 4.8 km/h 11.3 km/h 95% 0 mm
18:45 15.1 °C 14.3 °C 1016.8 hPa SE 4.8 km/h 9.7 km/h 95% 0 mm
18:47 15.1 °C 14.3 °C 1016.8 hPa SE 8 km/h 11.3 km/h 95% 0 mm
18:52 15 °C 14.2 °C 1016.8 hPa SE 6.4 km/h 12.9 km/h 95% 0 mm
18:57 15 °C 14.2 °C 1016.8 hPa SSE 6.4 km/h 11.3 km/h 95% 0 mm
19:02 15 °C 14.2 °C 1016.8 hPa SSE 9.7 km/h 11.3 km/h 95% 0 mm
19:07 15.1 °C 14.3 °C 1016.8 hPa SSW 4.8 km/h 9.7 km/h 95% 0 mm
19:12 15 °C 14.2 °C 1016.8 hPa South 6.4 km/h 8 km/h 95% 0 mm
19:17 14.9 °C 14.2 °C 1016.8 hPa SSE 4.8 km/h 9.7 km/h 95% 0 mm
19:22 14.9 °C 14.1 °C 1016.8 hPa SSE 8 km/h 11.3 km/h 95% 0 mm
19:27 14.9 °C 14.2 °C 1016.8 hPa SE 8 km/h 11.3 km/h 95% 0 mm
19:32 15 °C 14.2 °C 1016.8 hPa SE 8 km/h 11.3 km/h 95% 0 mm
19:37 15 °C 14.2 °C 1016.8 hPa SSE 6.4 km/h 8 km/h 95% 0 mm
19:42 15.1 °C 14.3 °C 1017.2 hPa SSE 8 km/h 9.7 km/h 95% 0 mm
19:47 15.1 °C 14.3 °C 1017.2 hPa SSE 6.4 km/h 14.5 km/h 95% 0 mm
19:52 15.1 °C 14.3 °C 1017.2 hPa SSE 6.4 km/h 11.3 km/h 95% 0 mm
19:57 15.1 °C 14.3 °C 1017.5 hPa SSE 9.7 km/h 9.7 km/h 95% 0 mm
20:02 15.1 °C 14.3 °C 1017.5 hPa South 6.4 km/h 11.3 km/h 95% 0 mm
20:07 15.1 °C 14.3 °C 1017.5 hPa SE 6.4 km/h 8 km/h 95% 0 mm
20:12 15.1 °C 14.3 °C 1017.5 hPa SE 9.7 km/h 9.7 km/h 95% 0 mm
20:17 15.1 °C 14.3 °C 1017.5 hPa SE 4.8 km/h 6.4 km/h 95% 0 mm
20:22 15 °C 14.2 °C 1017.5 hPa ESE 4.8 km/h 6.4 km/h 95% 0 mm
20:27 15 °C 14.2 °C 1017.5 hPa ESE 6.4 km/h 11.3 km/h 95% 0 mm
20:32 14.9 °C 14.2 °C 1017.5 hPa SE 3.2 km/h 8 km/h 95% 0 mm
20:37 14.9 °C 14.1 °C 1018.2 hPa WNW 4.8 km/h 6.4 km/h 95% 0 mm
20:42 14.9 °C 14.1 °C 1018.5 hPa SE 9.7 km/h 12.9 km/h 95% 21.59 mm
20:47 14.6 °C 13.8 °C 1018.2 hPa ESE 9.7 km/h 11.3 km/h 95% 14.99 mm
20:53 14.2 °C 13.3 °C 1018.2 hPa WNW 6.4 km/h 6.4 km/h 94% 65.79 mm
20:58 14.3 °C 13.3 °C 1018.2 hPa WSW 6.4 km/h 8 km/h 94% 68.58 mm
21:03 14.1 °C 13.1 °C 1017.8 hPa West 3.2 km/h 11.3 km/h 94% 20.83 mm
21:08 13.8 °C 12.5 °C 1017.8 hPa SE 8 km/h 11.3 km/h 92% 2.79 mm
21:13 13.5 °C 12.2 °C 1017.8 hPa SW 3.2 km/h 8 km/h 92% 1.52 mm
21:18 13.4 °C 12.1 °C 1017.8 hPa WSW 8 km/h 8 km/h 92% 1.02 mm
21:23 13.5 °C 12.4 °C 1017.8 hPa WSW 3.2 km/h 4.8 km/h 93% 0 mm
21:28 13.7 °C 12.6 °C 1017.8 hPa WSW 3.2 km/h 6.4 km/h 93% 0 mm
21:33 13.7 °C 12.6 °C 1018.2 hPa WSW 3.2 km/h 4.8 km/h 93% 0 mm
21:38 13.7 °C 12.8 °C 1017.8 hPa SSW 3.2 km/h 9.7 km/h 94% 0 mm
21:43 13.9 °C 12.9 °C 1018.2 hPa SW 8 km/h 9.7 km/h 94% 0 mm
21:48 14.2 °C 13.4 °C 1018.2 hPa SSW 4.8 km/h 11.3 km/h 95% 0 mm
21:53 14.4 °C 13.6 °C 1018.5 hPa WSW 1.6 km/h 12.9 km/h 95% 53.85 mm
21:58 14.4 °C 13.7 °C 1018.5 hPa SSW 9.7 km/h 9.7 km/h 95% 5.33 mm
22:03 14.6 °C 13.8 °C 1018.5 hPa South 4.8 km/h 12.9 km/h 95% 12.7 mm
22:08 14.6 °C 13.8 °C 1018.2 hPa SSE 6.4 km/h 9.7 km/h 95% 4.57 mm
22:13 14.6 °C 13.8 °C 1017.5 hPa SE 8 km/h 9.7 km/h 95% 1.78 mm
22:18 14.5 °C 13.7 °C 1016.5 hPa SE 12.9 km/h 24.1 km/h 95% 1.27 mm
22:23 14.4 °C 13.6 °C 1016.1 hPa SE 17.7 km/h 19.3 km/h 95% 0 mm
22:28 14.3 °C 13.6 °C 1015.8 hPa SE 14.5 km/h 22.5 km/h 95% 0 mm
22:33 14.2 °C 13.4 °C 1016.1 hPa SE 11.3 km/h 16.1 km/h 95% 0 mm
22:38 14.2 °C 13.3 °C 1016.5 hPa ESE 8 km/h 12.9 km/h 94% 0 mm
22:43 14.1 °C 13.2 °C 1016.5 hPa SE 11.3 km/h 14.5 km/h 94% 0 mm
22:49 14.1 °C 13.3 °C 1016.5 hPa SE 6.4 km/h 14.5 km/h 95% 0 mm
22:54 14.1 °C 13.3 °C 1016.8 hPa SSE 9.7 km/h 16.1 km/h 95% 0 mm
22:59 13.9 °C 13.2 °C 1017.2 hPa South 12.9 km/h 17.7 km/h 95% 0 mm
23:04 13.8 °C 13.1 °C 1017.2 hPa SSW 8 km/h 14.5 km/h 95% 0 mm
23:09 13.7 °C 12.9 °C 1017.5 hPa SSW 9.7 km/h 14.5 km/h 95% 0 mm
23:14 13.6 °C 12.8 °C 1017.5 hPa SSE 8 km/h 14.5 km/h 95% 0 mm
23:19 13.4 °C 12.6 °C 1018.2 hPa WSW 9.7 km/h 11.3 km/h 95% 0 mm
23:24 13.3 °C 12.5 °C 1018.8 hPa WNW 4.8 km/h 12.9 km/h 95% 0 mm
23:29 13.3 °C 12.5 °C 1018.8 hPa WNW 11.3 km/h 11.3 km/h 95% 0 mm
23:34 13.2 °C 12.4 °C 1018.8 hPa WSW 4.8 km/h 4.8 km/h 95% 0 mm
23:39 13.2 °C 12.4 °C 1018.8 hPa WSW 4.8 km/h 6.4 km/h 95% 0 mm
23:45 13.3 °C 12.5 °C 1018.8 hPa SSW 4.8 km/h 6.4 km/h 95% 0 mm
23:50 13.3 °C 12.5 °C 1018.5 hPa SW 3.2 km/h 6.4 km/h 95% 0 mm
23:55 13.2 °C 12.4 °C 1018.8 hPa SSW 3.2 km/h 4.8 km/h 95% 0 mm
Compliments of Weather Underground